This is the latest recevied weather packets stored in our database for station/object W4ZHA. If no packets are shown the sender has not sent any weather packets the latest 10 day(s).
| Time | Temp. | Humidity | Pressure | Rain* | Wind** | Luminosity | Snow |
|---|---|---|---|---|---|---|---|
| 1787596727 | 31.67° C | 45% | 1017.2 hPa | 0 mm | - | 479 W/m² | - |
| 1787596422 | 31.11° C | 45% | 1017.6 hPa | 0 mm | - | 477 W/m² | - |
| 1787596118 | 30° C | 45% | 1017.6 hPa | 0 mm | - | 473 W/m² | - |
| 1787595814 | 30.56° C | 45% | 1017.2 hPa | 0 mm | - | 478 W/m² | - |
| 1787595509 | 30.56° C | 45% | 1017.6 hPa | 0 mm | - | 473 W/m² | - |
| 1787595205 | 31.67° C | 45% | 1017.6 hPa | 0 mm | - | 469 W/m² | - |
| 1787594904 | 31.67° C | 45% | 1017.6 hPa | 0 mm | - | 447 W/m² | - |
| 1787594599 | 31.11° C | 45% | 1017.6 hPa | 0 mm | - | 467 W/m² | - |
| 1787594298 | 31.11° C | 45% | 1017.2 hPa | 0 mm | - | 463 W/m² | - |
| 1787593993 | 31.11° C | 45% | 1017.2 hPa | 0 mm | - | 466 W/m² | - |
| 1787593692 | 30.56° C | 45% | 1017.6 hPa | 0 mm | - | 470 W/m² | - |
| 1787593388 | 31.67° C | 45% | 1017.6 hPa | 0 mm | - | 470 W/m² | - |
| 1787593083 | 31.11° C | 45% | 1017.6 hPa | 0 mm | - | 462 W/m² | - |
| 1787592778 | 30.56° C | 45% | 1017.6 hPa | 0 mm | - | 459 W/m² | - |
| 1787592477 | 30° C | 45% | 1017.6 hPa | 0 mm | - | 425 W/m² | - |
| 1787592172 | 30.56° C | 45% | 1017.6 hPa | 0 mm | - | 440 W/m² | - |
| 1787591869 | 30° C | 45% | 1017.6 hPa | 0 mm | - | 444 W/m² | - |
| 1787591569 | 29.44° C | 50% | 1017.9 hPa | 0 mm | - | 462 W/m² | - |
| 1787591264 | 30.56° C | 45% | 1017.9 hPa | 0 mm | - | 461 W/m² | - |
| 1787590959 | 30.56° C | 45% | 1017.9 hPa | 0 mm | - | 444 W/m² | - |
| 1787590655 | 29.44° C | 46% | 1017.9 hPa | 0 mm | - | 453 W/m² | - |
| 1787590350 | 30° C | 46% | 1017.9 hPa | 0 mm | - | 442 W/m² | - |
| 1787590045 | 29.44° C | 46% | 1017.6 hPa | 0 mm | - | 435 W/m² | - |
| 1787589741 | 29.44° C | 50% | 1017.9 hPa | 0 mm | - | 426 W/m² | - |
| 1787589436 | 29.44° C | 53% | 1017.9 hPa | 0 mm | - | 422 W/m² | - |
* Rain latest hour (hover to see other rain measurements)
** Current wind speed in m/s (hover to see current wind gust speed)